Satellite: LIBERT
Catalog number: 31129
Epoch time:      08017.22422361
Element set:     677
Inclination:      098.0591 deg
RA of node:       086.9792 deg
Eccentricity:    0.0103393
Arg of perigee:   084.4777 deg
Mean anomaly:     276.8182 deg
Mean motion:   14.51995751 rev/day
Decay rate:       3.39e-06 rev/day^2
Epoch rev:            3986
Checksum:              334

/EX
SB KEPS @ AMSAT  $ORB08017.W
Orbital Elements  08017.WEATHER

HR AMSAT ORBITAL ELEMENTS FOR WEATHER SATELLITES
FROM WA5QGD FORT WORTH,TX January 17, 2008
Send Subscribe/unsubscribe to KEPS at 
http://www.amsat.org/mailman/listinfo/keps
BID: ORB08017.W
TO ALL RADIO AMATEURS BT

Satellite: NOAA-10
Catalog number: 16969
Epoch time:      08017.10898942
Element set:     968
Inclination:      098.7348 deg
RA of node:       039.2921 deg
Eccentricity:    0.0011609
Arg of perigee:   265.2724 deg
Mean anomaly:     094.7144 deg
Mean motion:   14.27347243 rev/day
Decay rate:       -8.8e-07 rev/day^2
Epoch rev:           10974
Checksum:              337

Satellite: NOAA-11
Catalog number: 19531
Epoch time:      08017.26644336
Element set:       2
Inclination:      098.8025 deg
RA of node:       108.7009 deg
Eccentricity:    0.0011902
Arg of perigee:   138.0364 deg
Mean anomaly:     222.1723 deg
Mean motion:   14.14862288 rev/day
Decay rate:      -2.18e-06 rev/day^2
Epoch rev:           99642
Checksum:              283

Satellite: NOAA-12
Catalog number: 21263
Epoch time:      08017.45261252
Element set:     508
Inclination:      098.7639 deg
RA of node:       019.4441 deg
Eccentricity:    0.0012151
Arg of perigee:   202.3665 deg
Mean anomaly:     157.7001 deg
Mean motion:   14.25513302 rev/day
Decay rate:       1.66e-06 rev/day^2
Epoch rev:           86677
Checksum:              276

Satellite: MET-3/5
Catalog number: 21655
Epoch time:      08015.88700235
Element set:    0431
Inclination:      082.5516 deg
RA of node:       212.6595 deg
Eccentricity:    0.0014483
Arg of perigee:   039.4017 deg
Mean anomaly:     320.8156 deg
Mean motion:   13.17014215 rev/day
Decay rate:        5.1e-07 rev/day^2
Epoch rev:           78940
Checksum:              278

Satellite: MET-2/21
Catalog number: 22782
Epoch time:      08016.84264035
Element set:      39
Inclination:      082.5446 deg
RA of node:       232.4110 deg
Eccentricity:    0.0022599
Arg of perigee:   001.0985 deg
Mean anomaly:     359.0233 deg
Mean motion:   13.83623976 rev/day
Decay rate:       -5.8e-07 rev/day^2
Epoch rev:           72606
Checksum:              296

Satellite: OKEAN-4
Catalog number: 23317
Epoch time:      08017.40460423
Element set:     480
Inclination:      082.5396 deg
RA of node:       096.7002 deg
Eccentricity:    0.0020393
Arg of perigee:   267.3372 deg
Mean anomaly:     092.5500 deg
Mean motion:   14.82571197 rev/day
Decay rate:       2.85e-06 rev/day^2
Epoch rev:           71579
Checksum:              295

Satellite: NOAA-14
Catalog number: 23455
Epoch time:      08017.31341174
Element set:     980
Inclination:      098.9644 deg
RA of node:       089.3640 deg
Eccentricity:    0.0009117
Arg of perigee:   209.7324 deg
Mean anomaly:     150.3352 deg
Mean motion:   14.13734564 rev/day
Decay rate:       2.63e-06 rev/day^2
Epoch rev:           67289
Checksum:              306

Satellite: SICH-1
Catalog number: 23657
Epoch time:      08017.12011374
Element set:     279
Inclination:      082.5246 deg
RA of node:       237.9016 deg
Eccentricity:    0.0022298
Arg of perigee:   260.0733 deg
Mean anomaly:     099.7977 deg
Mean motion:   14.81544734 rev/day
Decay rate:       2.22e-06 rev/day^2
Epoch rev:           66770
Checksum:              307

Satellite: NOAA-15
Catalog number: 25338
Epoch time:      08017.44903604
Element set:     316
Inclination:      098.5465 deg
RA of node:       013.2419 deg
Eccentricity:    0.0011439
Arg of perigee:   121.8106 deg
Mean anomaly:     238.4212 deg
Mean motion:   14.24682387 rev/day
Decay rate:       1.01e-06 rev/day^2
Epoch rev:           50319
Checksum:              274

Satellite: RESURS
Catalog number: 25394
Epoch time:      08017.21304911
Element set:     833
Inclination:      098.4120 deg
RA of node:       067.9319 deg
Eccentricity:    0.0000983
Arg of perigee:   322.6067 deg
Mean anomaly:     037.5043 deg
Mean motion:   14.24152312 rev/day
Decay rate:       -1.1e-07 rev/day^2
Epoch rev:           49481
Checksum:              265

Satellite: FENGYUN1
Catalog number: 25730
Epoch time:      08017.80453621
Element set:     317
Inclination:      098.7116 deg
RA of node:       358.7907 deg
Eccentricity:    0.0020221
Arg of perigee:   236.4741 deg
Mean anomaly:     123.4497 deg
Mean motion:   14.07663169 rev/day
Decay rate:        8.2e-07 rev/day^2
Epoch rev:           44766
Checksum:              299

Satellite: OKEAN-0
Catalog number: 25860
Epoch time:      08017.00627420
Element set:     264
Inclination:      097.7402 deg
RA of node:       014.3727 deg
Eccentricity:    0.0001857
Arg of perigee:   063.3016 deg
Mean anomaly:     296.8373 deg
Mean motion:   14.73496993 rev/day
Decay rate:        4.9e-07 rev/day^2
Epoch rev:           45698
Checksum:              312

